Location: La Fredeussais
(48.1780°N, 1.3980°W)
Time: 16:56:45
(UTC+00:00)

Okean 1-7 - Pass Details

Date: 09 May 2021
Orbit: 591 x 617 km, 82.5° (Epoch: 23 June)

Event Time Altitude Azimuth Distance (km) Brightness Sun altitude
Exits shadow 23:42:46 50° 79° (E) 766 3.5 -24.1°
Drops below altitude 10° 23:46:38 10° 19° (NNE) 1,943 6.5 -24.1°
Sets 23:48:54 0° 14° (NNE) 2,854 7.7 -24.1°
